Die Wichtigste » das Wetter in Italien » Friaul-Julisch Venetien » Grado » Meteograms hourly weather

Grado, Meteogramm

Grado: stundensatz wetter
Freitag, 06 März
Zeit Der Niederschlag Die Temperatur Fühlt Der Druck Die Feuchtigkeit Der Wind
22:00 0 mm +3.9° +3.6° 775 mmHg 69% 5 m/S, NO
23:00 0 mm +3.6° +3.3° 775 mmHg 70% 5 m/S, NO
Samstag, 07 März
Zeit Der Niederschlag Die Temperatur Fühlt Der Druck Die Feuchtigkeit Der Wind
00:00 0 mm +3.2° +2.9° 775 mmHg 70% 5 m/S, NO
01:00 0 mm +3° +2.7° 775 mmHg 70% 4 m/S, NO
02:00 0 mm +2.8° +2.5° 775 mmHg 70% 4 m/S, NO
03:00 0 mm +2.6° +2.3° 775 mmHg 70% 4 m/S, NO
04:00 0 mm +2.6° +2.3° 775 mmHg 71% 3 m/S, NO
05:00 0 mm +2.5° +2.2° 775 mmHg 71% 3 m/S, NO
06:00 0 mm +2.4° +2.2° 775 mmHg 72% 3 m/S, NO
07:00 0 mm +4.7° +4.3° 774 mmHg 64% 3 m/S, NO
08:00 0 mm +6.9° +6.4° 774 mmHg 57% 3 m/S, NO
09:00 0 mm +9.2° +8.5° 774 mmHg 50% 3 m/S, NO
10:00 0 mm +10.3° +9.5° 774 mmHg 47% 3 m/S, NO
11:00 0 mm +11.3° +10.5° 774 mmHg 44% 4 m/S, NO
12:00 0 mm +12.4° +11.5° 773 mmHg 41% 4 m/S, N
13:00 0 mm +12.1° +11.3° 773 mmHg 44% 4 m/S, N
14:00 0 mm +11.8° +11° 773 mmHg 46% 4 m/S, NO
15:00 0 mm +11.5° +10.8° 772 mmHg 48% 4 m/S, NO
16:00 0 mm +9.6° +9.1° 773 mmHg 55% 4 m/S, NO
17:00 0 mm +7.8° +7.4° 773 mmHg 63% 4 m/S, NO
18:00 0 mm +6° +5.7° 773 mmHg 70% 5 m/S, NO
19:00 0 mm +5.6° +5.4° 774 mmHg 71% 5 m/S, NO
20:00 0 mm +5.3° +5.1° 774 mmHg 72% 5 m/S, NO
21:00 0 mm +5° +4.8° 774 mmHg 73% 5 m/S, NO
22:00 0 mm +4.7° +4.5° 774 mmHg 74% 5 m/S, NO
23:00 0 mm +4.5° +4.3° 774 mmHg 76% 5 m/S, NO
Sonntag, 08 März
Zeit Der Niederschlag Die Temperatur Fühlt Der Druck Die Feuchtigkeit Der Wind
00:00 0 mm +4.2° +4° 773 mmHg 77% 5 m/S, NO
01:00 0 mm +4° +3.8° 773 mmHg 78% 5 m/S, NO
02:00 0 mm +3.8° +3.6° 773 mmHg 78% 5 m/S, NO
03:00 0 mm +3.5° +3.4° 772 mmHg 79% 5 m/S, NO
04:00 0 mm +3.6° +3.5° 772 mmHg 78% 5 m/S, NO
05:00 0 mm +3.7° +3.5° 772 mmHg 78% 5 m/S, NO
06:00 0 mm +3.7° +3.6° 772 mmHg 77% 5 m/S, NO
07:00 0 mm +6.1° +5.8° 772 mmHg 68% 5 m/S, NO
08:00 0 mm +8.4° +7.9° 772 mmHg 59% 6 m/S, NO
09:00 0 mm +10.7° +10.1° 772 mmHg 50% 6 m/S, NO
10:00 0 mm +11.8° +11° 771 mmHg 47% 5 m/S, NO
11:00 0 mm +12.8° +12° 771 mmHg 44% 5 m/S, NO
12:00 0 mm +13.9° +13° 771 mmHg 41% 5 m/S, NO
13:00 0 mm +13.6° +12.8° 770 mmHg 43% 5 m/S, NO
14:00 0 mm +13.4° +12.7° 770 mmHg 45% 5 m/S, O
15:00 0 mm +13.2° +12.5° 770 mmHg 46% 5 m/S, O
16:00 0 mm +11.2° +10.7° 770 mmHg 53% 4 m/S, O
17:00 0 mm +9.3° +8.9° 770 mmHg 60% 4 m/S, O
18:00 0 mm +7.3° +7° 771 mmHg 67% 4 m/S, O
19:00 0 mm +6.8° +6.5° 771 mmHg 68% 4 m/S, NO
20:00 0 mm +6.2° +5.9° 771 mmHg 70% 4 m/S, NO
21:00 0 mm +5.6° +5.4° 771 mmHg 71% 4 m/S, NO

Auch

Meteograms hourly weather Die Wetterkarte Wetterübersicht
Meteograms hourly weather Die Wetterkarte Wetterübersicht

Market


Wetter widget


 
das Wetter in Österreich:
Über das Projekt
© meteoprog.at 2003-2015.
Meteoprog.ua - погода в Украине 0.0732
sitemap